Terminal Aerodrome Forecast
Issued by NWS Portland, ME

Home | Current Version | Previous Version | Text Only | Print | Product List | Glossary On
Versions: 1 2 3 4 5 6 7 8 9 10 11 12 13 14 15 16 17 18 19 20 21
000
FTUS41 KGYX 050520
TAFPWM
TAF
KPWM 050520Z 0506/0606 05009KT 6SM -RA BR OVC007
     FM051000 03010KT 6SM -DZ OVC012
     FM051400 02012G20KT P6SM OVC025
     FM060000 01012KT 4SM -RA BR OVC012=

USA.gov is the U.S. government's official web portal to all federal, state and local government web resources and services.